Date String (YYYY-MM-DD hh:mm:ss) UTC,Instrument flags,Ambient pressure (hPa),Sample flow (lpm),Bypass flow (lpm),Sample temperature (°C),Ambient temperature (°C),ASC tube jacket temperature (°C),LED temperature (°C),Box temperature (°C),Sample RH (%),Span deviation,Mass concentration (μg/m³),Mass concentration (μg/m³),Mass concentration (μg/m³)
DateTimeUTC,F1_M11,P_M11,Q1_M11,Q2_M11,T1_M11,T2_M11,T3_M11,T4_M11,T5_M11,U1_M11,ZSPAN_M11,X0_M11,X2_M11,X1_M11
2022-01-10 22:00:00,,0836.3,4.98,0.00,29.5,28.8,00.0,38.4,31.3,05.8,0000.0,0016.65,0006.16,0004.97
2022-01-10 22:01:00,,0836.3,5.02,0.00,29.5,28.8,00.0,38.4,31.3,05.8,0000.0,0016.39,0006.31,0005.10
2022-01-10 22:02:00,,0836.3,4.99,0.00,29.6,28.9,00.0,38.4,31.3,05.7,0000.0,0016.99,0006.44,0005.23
2022-01-10 22:03:00,,0836.3,5.00,0.00,29.6,28.9,00.0,38.4,31.3,05.7,0000.0,0017.79,0006.54,0005.33
2022-01-10 22:04:00,,0836.3,5.00,0.00,29.6,28.9,00.0,38.5,31.4,05.9,0000.0,0018.74,0006.62,0005.39
2022-01-10 22:05:00,,0836.2,5.00,0.00,29.6,28.9,00.0,38.5,31.4,05.8,0000.0,0019.71,0006.63,0005.41
2022-01-10 22:06:00,,0836.3,4.99,0.00,29.6,28.9,00.0,38.5,31.4,05.5,0000.0,0019.03,0006.59,0005.38
2022-01-10 22:07:00,,0836.2,5.00,0.00,29.6,28.9,00.0,38.5,31.4,05.6,0000.0,0018.22,0006.53,0005.34
2022-01-10 22:08:00,,0836.2,4.98,0.00,29.6,28.9,00.0,38.5,31.4,05.5,0000.0,0018.26,0006.43,0005.30
2022-01-10 22:09:00,,0836.3,4.99,0.00,29.6,29.0,00.0,38.5,31.4,05.6,0000.0,0018.10,0006.29,0005.23
2022-01-10 22:10:00,,0836.2,5.02,0.00,29.7,29.0,00.0,38.6,31.4,05.7,0000.0,0016.89,0006.14,0005.12
2022-01-10 22:11:00,,0836.2,5.00,0.00,29.7,29.0,00.0,38.6,31.4,06.0,0000.0,0016.49,0006.01,0005.04
2022-01-10 22:12:00,,0836.3,4.99,0.00,29.7,29.0,00.0,38.6,31.5,06.0,0000.0,0016.03,0005.85,0004.94
2022-01-10 22:13:00,,0836.2,5.01,0.00,29.7,29.0,00.0,38.6,31.5,05.5,0000.0,0015.47,0005.72,0004.83
2022-01-10 22:14:00,,0836.2,4.99,0.00,29.7,29.0,00.0,38.6,31.5,05.5,0000.0,0014.98,0005.60,0004.72
2022-01-10 22:15:00,,0836.3,4.99,0.00,29.7,29.0,00.0,38.6,31.5,05.5,0000.0,0014.07,0005.46,0004.63
2022-01-10 22:16:00,,0836.2,5.01,0.00,29.7,29.0,00.0,38.6,31.5,05.4,0000.0,0012.90,0005.34,0004.55
2022-01-10 22:17:00,,0836.2,5.01,0.00,29.7,28.9,00.0,38.6,31.5,05.5,0000.0,0011.56,0005.25,0004.48
2022-01-10 22:18:00,,0836.1,4.99,0.00,29.7,28.9,00.0,38.6,31.5,05.6,0000.0,0011.41,0005.21,0004.43
2022-01-10 22:19:00,,0836.0,5.01,0.00,29.7,28.9,00.0,38.7,31.5,05.7,0000.0,0011.05,0005.22,0004.40
2022-01-10 22:20:00,,0836.0,5.00,0.00,29.7,28.9,00.0,38.7,31.5,05.7,0000.0,0010.76,0005.17,0004.38
2022-01-10 22:21:00,,0836.0,4.99,0.00,29.7,28.9,00.0,38.7,31.5,05.8,0000.0,0010.50,0005.11,0004.36
2022-01-10 22:22:00,,0836.0,5.00,0.00,29.7,28.9,00.0,38.7,31.4,05.8,0000.0,0010.52,0005.08,0004.35
2022-01-10 22:23:00,,0836.0,4.99,0.00,29.7,28.9,00.0,38.7,31.4,05.8,0000.0,0011.51,0005.08,0004.35
2022-01-10 22:24:00,,0836.0,5.00,0.00,29.7,28.9,00.0,38.7,31.4,05.8,0000.0,0011.95,0005.10,0004.35
2022-01-10 22:25:00,,0836.0,4.99,0.00,29.7,28.9,00.0,38.7,31.4,05.9,0000.0,0011.91,0005.10,0004.37
2022-01-10 22:26:00,,0835.9,5.00,0.00,29.7,28.9,00.0,38.7,31.4,06.0,0000.0,0012.32,0005.13,0004.38
2022-01-10 22:27:00,,0835.9,5.00,0.00,29.7,28.9,00.0,38.7,31.4,06.1,0000.0,0012.70,0005.17,0004.39
2022-01-10 22:28:00,,0835.9,4.99,0.00,29.7,28.9,00.0,38.7,31.4,06.1,0000.0,0012.80,0005.22,0004.40
2022-01-10 22:29:00,,0835.9,5.01,0.00,29.7,28.9,00.0,38.7,31.4,06.1,0000.0,0013.12,0005.25,0004.42
2022-01-10 22:30:00,,0835.9,4.99,0.00,29.7,28.9,00.0,38.7,31.5,06.4,0000.0,0013.41,0005.27,0004.41
2022-01-10 22:31:00,,0835.9,5.01,0.00,29.7,28.9,00.0,38.7,31.5,06.3,0000.0,0013.48,0005.32,0004.40
2022-01-10 22:32:00,,0836.0,4.99,0.00,29.7,28.9,00.0,38.7,31.5,06.1,0000.0,0013.82,0005.34,0004.39
2022-01-10 22:33:00,,0835.9,5.00,0.00,29.7,29.0,00.0,38.7,31.5,05.9,0000.0,0013.86,0005.33,0004.38
2022-01-10 22:34:00,,0836.0,5.00,0.00,29.7,29.0,00.0,38.7,31.5,05.9,0000.0,0013.73,0005.33,0004.36
2022-01-10 22:35:00,,0836.0,5.00,0.00,29.7,29.0,00.0,38.7,31.5,05.9,0000.0,0014.09,0005.32,0004.37
2022-01-10 22:36:00,,0836.0,4.99,0.00,29.8,29.0,00.0,38.7,31.5,05.8,0000.0,0014.91,0005.37,0004.38
2022-01-10 22:37:00,,0836.0,4.99,0.00,29.8,29.0,00.0,38.7,31.5,05.8,0000.0,0014.68,0005.42,0004.39
2022-01-10 22:38:00,,0835.9,5.01,0.00,29.8,29.0,00.0,38.7,31.5,05.8,0000.0,0015.10,0005.41,0004.41
2022-01-10 22:39:00,,0835.9,4.99,0.00,29.8,29.0,00.0,38.7,31.6,05.7,0000.0,0015.32,0005.47,0004.46
2022-01-10 22:40:00,,0836.0,5.01,0.00,29.8,29.0,00.0,38.7,31.6,05.7,0000.0,0015.77,0005.52,0004.49
2022-01-10 22:41:00,,0835.9,4.98,0.00,29.8,29.0,00.0,38.7,31.6,05.7,0000.0,0015.94,0005.56,0004.53
2022-01-10 22:42:00,,0835.9,5.01,0.00,29.8,29.0,00.0,38.7,31.6,05.7,0000.0,0015.81,0005.58,0004.58
2022-01-10 22:43:00,,0835.9,4.98,0.00,29.8,29.0,00.0,38.7,31.6,05.8,0000.0,0016.23,0005.57,0004.59
2022-01-10 22:44:00,,0835.9,5.01,0.00,29.8,29.0,00.0,38.7,31.6,05.7,0000.0,0016.33,0005.56,0004.56
2022-01-10 22:45:00,,0835.9,5.00,0.00,29.8,29.0,00.0,38.7,31.6,05.6,0000.0,0015.55,0005.46,0004.49
2022-01-10 22:46:00,,0835.9,5.00,0.00,29.8,29.0,00.0,38.7,31.6,05.5,0000.0,0014.34,0005.33,0004.39
2022-01-10 22:47:00,,0835.9,5.02,0.00,29.8,29.0,00.0,38.7,31.6,05.5,0000.0,0013.83,0005.16,0004.28
2022-01-10 22:48:00,,0835.9,4.99,0.00,29.8,29.0,00.0,38.7,31.6,05.4,0000.0,0013.26,0005.03,0004.18
2022-01-10 22:49:00,,0835.9,5.00,0.00,29.8,29.0,00.0,38.7,31.6,05.3,0000.0,0012.15,0004.93,0004.07
2022-01-10 22:50:00,,0835.9,5.00,0.00,29.8,29.0,00.0,38.7,31.6,05.2,0000.0,0011.78,0004.75,0003.94
2022-01-10 22:51:00,,0835.9,4.98,0.00,29.8,29.0,00.0,38.7,31.5,05.3,0000.0,0010.86,0004.59,0003.82
2022-01-10 22:52:00,,0835.9,5.01,0.00,29.8,29.0,00.0,38.7,31.5,05.3,0000.0,0010.35,0004.43,0003.71
2022-01-10 22:53:00,,0835.9,4.99,0.00,29.8,29.0,00.0,38.7,31.4,05.3,0000.0,0010.19,0004.33,0003.60
2022-01-10 22:54:00,,0835.8,5.01,0.00,29.8,29.0,00.0,38.7,31.4,05.4,0000.0,0009.62,0004.23,0003.51
2022-01-10 22:55:00,,0835.8,5.01,0.00,29.7,29.0,00.0,38.7,31.4,05.3,0000.0,0009.55,0004.18,0003.46
2022-01-10 22:56:00,,0835.7,4.98,0.00,29.7,29.0,00.0,38.7,31.4,05.4,0000.0,0010.34,0004.18,0003.44
2022-01-10 22:57:00,,0835.7,5.01,0.00,29.7,28.9,00.0,38.7,31.4,05.3,0000.0,0010.73,0004.23,0003.45
2022-01-10 22:58:00,,0835.8,5.01,0.00,29.7,28.9,00.0,38.7,31.4,05.3,0000.0,0010.36,0004.25,0003.45
2022-01-10 22:59:00,,0835.7,4.99,0.00,29.7,29.0,00.0,38.7,31.4,05.3,0000.0,0010.39,0004.27,0003.47
